This is the latest recevied weather packets stored in our database for station/object SP1BMW-13. If no packets are shown the sender has not sent any weather packets the latest 10 day(s).
| Time | Temp. | Humidity | Pressure | Rain* | Wind** | Luminosity | Snow |
|---|---|---|---|---|---|---|---|
| 1777375318 | 13.33° C | 27% | 1025.8 hPa | 0 mm | 1.34 m/s, 288° | 678 W/m² | - |
| 1777375258 | 13.89° C | 29% | 1025.8 hPa | 0 mm | 1.79 m/s, 307° | 680 W/m² | - |
| 1777375198 | 13.89° C | 28% | 1025.9 hPa | 0 mm | 1.79 m/s, 282° | 680 W/m² | - |
| 1777375138 | 13.89° C | 27% | 1025.9 hPa | 0 mm | 1.79 m/s, 281° | 681 W/m² | - |
| 1777375078 | 13.89° C | 27% | 1026 hPa | 0 mm | 1.34 m/s, 257° | 675 W/m² | - |
| 1777375018 | 13.89° C | 27% | 1026.1 hPa | 0 mm | 1.79 m/s, 277° | 676 W/m² | - |
| 1777374958 | 13.89° C | 29% | 1025.8 hPa | 0 mm | 0.45 m/s, 316° | 681 W/m² | - |
| 1777374898 | 13.89° C | 27% | 1026.1 hPa | 0 mm | 0 m/s | 652 W/m² | - |
| 1777374838 | 13.89° C | 29% | 1025.8 hPa | 0 mm | 0 m/s | 583 W/m² | - |
| 1777374778 | 13.89° C | 28% | 1026 hPa | 0 mm | 1.34 m/s, 319° | 564 W/m² | - |
| 1777374718 | 13.33° C | 27% | 1026.1 hPa | 0 mm | 2.68 m/s, 274° | 610 W/m² | - |
| 1777374658 | 13.33° C | 28% | 1026 hPa | 0 mm | 0.89 m/s, 218° | 618 W/m² | - |
| 1777374598 | 13.33° C | 28% | 1025.8 hPa | 0 mm | 1.34 m/s, 273° | 611 W/m² | - |
| 1777374538 | 13.33° C | 27% | 1026.1 hPa | 0 mm | 0.45 m/s, 245° | 626 W/m² | - |
| 1777374478 | 13.33° C | 26% | 1025.9 hPa | 0 mm | 1.34 m/s, 233° | 637 W/m² | - |
| 1777374418 | 13.33° C | 27% | 1026 hPa | 0 mm | 0.89 m/s, 289° | 612 W/m² | - |
| 1777374358 | 13.33° C | 27% | 1025.9 hPa | 0 mm | 2.68 m/s, 256° | 624 W/m² | - |
| 1777374298 | 13.89° C | 28% | 1026 hPa | 0 mm | 0.89 m/s, 326° | 628 W/m² | - |
| 1777374238 | 13.89° C | 30% | 1026 hPa | 0 mm | 0.89 m/s, 308° | 648 W/m² | - |
| 1777374178 | 13.89° C | 28% | 1026 hPa | 0 mm | 1.34 m/s, 323° | 672 W/m² | - |
| 1777374118 | 13.89° C | 29% | 1026.1 hPa | 0 mm | 1.79 m/s, 27° | 674 W/m² | - |
| 1777374058 | 14.44° C | 27% | 1025.9 hPa | 0 mm | 0.45 m/s, 15° | 680 W/m² | - |
| 1777373998 | 14.44° C | 28% | 1026 hPa | 0 mm | 2.24 m/s, 18° | 684 W/m² | - |
| 1777373938 | 14.44° C | 28% | 1026.1 hPa | 0 mm | 3.13 m/s, 37° | 690 W/m² | - |
| 1777373878 | 14.44° C | 28% | 1025.9 hPa | 0 mm | 1.79 m/s, 83° | 691 W/m² | - |
* Rain latest hour (hover to see other rain measurements)
** Current wind speed in m/s (hover to see current wind gust speed)